AC4VM Weather Reports


Display with metric or nautical units.
time (UTC)temp
F
wind
direction
speed
MPH
gust
MPH
rain 1hr
in
rain 24hr
in
rain mn
in
humidity
%
barometer
mb
20260901070106 71 279 0.0 0.0 0.00 0.00 0.00 94 1016.8
20260901064554 71 279 0.0 0.0 0.00 0.00 0.00 94 1017.0
20260901063054 71 279 0.0 1.0 0.00 0.00 0.00 94 1017.0
20260901061553 71 279 0.0 0.0 0.00 0.00 0.00 94 1017.2
20260901060052 71 279 0.0 0.0 0.00 0.00 0.00 94 1017.3
20260901054550 72 279 0.0 0.0 0.00 0.00 0.00 94 1017.5
20260901053053 72 279 0.0 0.0 0.00 0.00 0.00 94 1017.3
20260901051549 72 279 0.0 1.0 0.00 0.00 0.00 93 1017.4
20260901050052 72 279 0.0 2.0 0.00 0.00 0.00 93 1017.3
20260901044555 72 279 0.0 0.0 0.00 0.00 0.00 92 1017.1
20260901043043 73 279 0.0 1.0 0.00 0.00 0.00 92 1017.0
20260901041541 73 279 0.0 1.0 0.00 0.00 0.00 92 1017.1
20260901040048 73 279 0.0 1.0 0.00 0.00 0.00 92 1017.0
20260901034541 73 279 1.0 2.0 0.00 0.00 0.00 91 1016.7
20260901033053 74 279 0.0 1.0 0.00 0.00 0.00 91 1016.7
20260901031537 74 279 0.0 2.0 0.00 0.00 0.00 91 1016.6
20260901030037 75 279 0.0 2.0 0.00 0.00 0.00 89 1016.6
20260901024537 74 279 0.0 0.0 0.00 0.00 0.00 90 1016.8
20260901023039 75 279 0.0 3.0 0.00 0.00 0.00 88 1016.8
20260901021549 75 279 0.0 1.0 0.00 0.00 0.00 87 1016.7
20260901020035 76 279 0.0 3.0 0.00 0.00 0.00 87 1016.7
20260901014533 76 285 0.0 1.0 0.00 0.00 0.00 87 1016.5
20260901013046 77 285 0.0 2.0 0.00 0.00 0.00 85 1016.2
20260901011542 78 285 1.0 2.0 0.00 0.00 0.00 84 1016.2
20260901010033 79 285 0.0 1.0 0.00 0.00 0.00 81 1016.1
20260901004531 79 285 0.0 1.0 0.00 0.00 0.00 82 1016.0
20260901003039 80 285 0.0 0.0 0.00 0.00 0.00 80 1015.9
20260901001529 81 285 0.0 1.0 0.00 0.00 0.00 78 1015.8
20260901000033 83 285 0.0 1.0 0.00 0.00 0.00 72 1015.9
20260831234529 85 285 0.0 2.0 0.00 0.00 0.00 69 1015.7
20260831233028 86 285 1.0 3.0 0.00 0.00 0.00 63 1015.9
20260831231527 87 268 1.0 3.0 0.00 0.00 0.00 58 1015.9
20260831230025 88 338 1.0 4.0 0.00 0.00 0.00 56 1016.1
20260831224524 88 6 1.0 3.0 0.00 0.00 0.00 57 1016.2
20260831223033 88 291 2.0 7.0 0.00 0.00 0.00 57 1016.2
20260831221522 89 353 2.0 5.0 0.00 0.00 0.00 57 1016.2
20260831220026 88 334 1.0 8.0 0.00 0.00 0.00 59 1016.3
20260831214522 89 253 3.0 9.0 0.00 0.00 0.00 60 1016.4
20260831213019 89 290 3.0 7.0 0.00 0.00 0.00 58 1016.3
20260831211532 89 286 2.0 5.0 0.00 0.00 0.00 60 1016.3
20260831210017 88 333 5.0 8.0 0.00 0.00 0.00 61 1016.5
20260831204516 89 271 2.0 4.0 0.00 0.00 0.00 55 1016.6
20260831203013 90 235 2.0 5.0 0.00 0.00 0.00 55 1016.7
20260831201514 91 342 1.0 6.0 0.00 0.00 0.00 56 1016.7
20260831200010 90 301 2.0 10.0 0.00 0.00 0.00 55 1017.0
20260831194515 90 284 6.0 11.0 0.00 0.00 0.00 56 1017.2
20260831193008 90 227 2.0 8.0 0.00 0.00 0.00 56 1017.3
20260831191508 90 296 3.0 8.0 0.00 0.00 0.00 57 1017.4
20260831190009 90 268 0.0 6.0 0.00 0.00 0.00 58 1017.6
20260831184506 90 318 4.0 8.0 0.00 0.00 0.00 57 1017.9
20260831183002 89 233 2.0 6.0 0.00 0.00 0.00 59 1018.1
20260831181501 89 272 3.0 5.0 0.00 0.00 0.00 60 1018.3
20260831180159 87 145 0.0 5.0 0.00 0.00 0.00 63 1018.3
20260831174558 88 252 2.0 6.0 0.00 0.00 0.00 64 1018.5
20260831173100 85 260 2.0 5.0 0.00 0.00 0.00 68 1018.6
20260831171556 86 236 2.0 7.0 0.00 0.00 0.00 65 1018.6
20260831170056 87 290 2.0 5.0 0.00 0.00 0.00 64 1018.8
20260831164554 87 271 2.0 6.0 0.00 0.00 0.00 64 1018.9
20260831163053 87 233 3.0 6.0 0.00 0.00 0.00 66 1018.9
20260831161551 85 245 3.0 5.0 0.00 0.00 0.00 69 1019.2
20260831160056 86 269 3.0 8.0 0.00 0.00 0.00 69 1019.3
20260831154550 85 96 0.0 5.0 0.00 0.00 0.00 69 1019.2
20260831153046 84 56 1.0 7.0 0.00 0.00 0.00 71 1019.3
20260831151544 84 89 2.0 5.0 0.00 0.00 0.00 71 1019.3
20260831150042 83 102 2.0 7.0 0.00 0.00 0.00 74 1019.4
20260831144549 82 223 1.0 4.0 0.00 0.00 0.00 74 1019.4
20260831143037 82 199 1.0 7.0 0.00 0.00 0.00 77 1019.3
20260831141535 81 235 1.0 5.0 0.00 0.00 0.00 77 1019.2
20260831140034 80 83 2.0 6.0 0.00 0.00 0.00 78 1019.2
20260831134530 79 128 2.0 4.0 0.00 0.00 0.00 81 1019.3
20260831133033 78 83 2.0 4.0 0.00 0.00 0.00 84 1019.3
20260831131522 77 223 0.0 3.0 0.00 0.00 0.00 87 1019.2
20260831130018 75 84 1.0 3.0 0.00 0.00 0.00 90 1019.2
20260831124518 74 277 0.0 2.0 0.00 0.00 0.00 92 1019.1
20260831123010 72 277 0.0 0.0 0.00 0.00 0.00 95 1019.1
20260831121507 70 277 0.0 0.0 0.00 0.00 0.00 96 1018.9
20260831120005 69 277 0.0 0.0 0.00 0.00 0.00 96 1018.8
20260831114503 68 277 0.0 0.0 0.00 0.00 0.00 95 1018.6
20260831113002 68 277 0.0 0.0 0.00 0.00 0.00 96 1018.5
20260831111613 68 277 0.0 0.0 0.00 0.00 0.00 95 1018.3
20260831104559 68 277 0.0 0.0 0.00 0.00 0.00 95 1018.0
20260831103104 68 277 0.0 0.0 0.00 0.00 0.00 96 1018.1
20260831101557 68 277 0.0 0.0 0.00 0.00 0.00 95 1017.9
20260831100052 69 277 0.0 0.0 0.00 0.00 0.00 95 1017.7
20260831094550 69 277 0.0 0.0 0.00 0.00 0.00 95 1017.6
20260831093049 69 277 0.0 0.0 0.00 0.00 0.00 95 1017.6
20260831091559 69 277 0.0 0.0 0.00 0.00 0.00 95 1017.4
20260831090046 69 277 0.0 0.0 0.00 0.00 0.00 95 1017.4
20260831084545 69 277 0.0 2.0 0.00 0.00 0.00 95 1017.3
20260831083045 69 277 1.0 3.0 0.00 0.00 0.00 95 1017.2
20260831081544 70 277 1.0 2.0 0.00 0.00 0.00 95 1017.2
20260831080100 70 277 0.0 1.0 0.00 0.00 0.00 94 1017.2
20260831074543 69 277 0.0 0.0 0.00 0.00 0.00 94 1017.2
20260831073105 70 277 1.0 2.0 0.00 0.00 0.00 94 1017.2
20260831071550 70 277 0.0 0.0 0.00 0.00 0.00 94 1017.3